Time,TemperatureF,DewpointF,PressureIn,WindDirection,WindDirectionDegrees,WindSpeedMPH,WindSpeedGustMPH,Humidity,HourlyPrecipIn,Conditions,Clouds,dailyrainin,SoftwareType,DateUTC
2014-07-28 00:00:00,74.2,62.1,29.78,WSW,246,3.0,18.0,66,0.00,,,0.45,Wunderground v.1.15,2014-07-28 04:00:00,
2014-07-28 00:01:00,74.2,62.1,29.78,West,281,6.0,18.0,66,0.00,,,0.00,Wunderground v.1.15,2014-07-28 04:01:00,
2014-07-28 00:13:00,73.7,61.6,29.77,WNW,290,8.0,8.0,66,0.00,,,0.00,Wunderground v.1.15,2014-07-28 04:13:00,
2014-07-28 00:14:00,74.0,61.9,29.78,NW,315,8.0,-999.0,66,0.00,,,0.00,Wunderground v.1.15,2014-07-28 04:14:00,
2014-07-28 00:15:00,73.7,61.6,29.77,SW,236,6.0,8.0,66,0.00,,,0.00,Wunderground v.1.15,2014-07-28 04:15:00,
2014-07-28 00:19:00,73.4,61.8,29.77,NNW,327,8.0,11.0,67,0.00,,,0.00,Wunderground v.1.15,2014-07-28 04:19:00,
2014-07-28 00:20:00,73.4,61.8,29.77,NW,315,6.0,11.0,67,0.00,,,0.00,Wunderground v.1.15,2014-07-28 04:20:00,
2014-07-28 00:21:00,73.3,61.7,29.77,West,281,5.0,11.0,67,0.00,,,0.00,Wunderground v.1.15,2014-07-28 04:21:00,
2014-07-28 00:27:00,72.9,61.7,29.77,WNW,282,8.0,8.0,68,0.00,,,0.00,Wunderground v.1.15,2014-07-28 04:27:00,
2014-07-28 00:30:00,72.7,61.9,29.77,WSW,256,5.0,9.0,69,0.00,,,0.00,Wunderground v.1.15,2014-07-28 04:30:00,
2014-07-28 00:31:00,72.6,61.8,29.77,West,268,13.0,13.0,69,0.00,,,0.00,Wunderground v.1.15,2014-07-28 04:31:00,
2014-07-28 00:32:00,72.7,61.5,29.77,WNW,292,9.0,13.0,68,0.00,,,0.00,Wunderground v.1.15,2014-07-28 04:32:00,
2014-07-28 00:36:00,72.6,61.8,29.77,WSW,252,4.0,11.0,69,0.00,,,0.00,Wunderground v.1.15,2014-07-28 04:36:00,
2014-07-28 00:37:00,72.6,61.8,29.77,WSW,256,3.0,11.0,69,0.00,,,0.00,Wunderground v.1.15,2014-07-28 04:37:00,
2014-07-28 00:38:00,72.5,61.7,29.77,WNW,292,11.0,11.0,69,0.00,,,0.00,Wunderground v.1.15,2014-07-28 04:38:00,
2014-07-28 00:39:00,72.6,61.8,29.77,West,263,5.0,11.0,69,0.00,,,0.00,Wunderground v.1.15,2014-07-28 04:39:00,
2014-07-28 00:40:00,72.6,61.8,29.77,West,272,8.0,11.0,69,0.00,,,0.00,Wunderground v.1.15,2014-07-28 04:40:00,
2014-07-28 00:42:00,72.5,61.7,29.77,WNW,286,7.0,11.0,69,0.00,,,0.00,Wunderground v.1.15,2014-07-28 04:42:00,
2014-07-28 00:43:00,72.4,61.7,29.78,West,280,3.0,7.0,69,0.00,,,0.00,Wunderground v.1.15,2014-07-28 04:43:00,
2014-07-28 00:45:00,72.3,61.6,29.78,NW,323,6.0,7.0,69,0.00,,,0.00,Wunderground v.1.15,2014-07-28 04:45:00,
2014-07-28 00:49:00,72.1,61.8,29.78,WNW,292,1.0,8.0,70,0.00,,,0.00,Wunderground v.1.15,2014-07-28 04:49:00,
2014-07-28 00:50:00,72.0,61.7,29.78,West,270,2.0,8.0,70,0.00,,,0.00,Wunderground v.1.15,2014-07-28 04:50:00,
2014-07-28 00:51:00,72.0,61.7,29.78,West,270,2.0,8.0,70,0.00,,,0.00,Wunderground v.1.15,2014-07-28 04:51:00,
2014-07-28 00:54:00,71.9,62.0,29.78,West,273,2.0,4.0,71,0.00,,,0.00,Wunderground v.1.15,2014-07-28 04:54:00,
2014-07-28 00:55:00,71.8,61.9,29.78,West,273,4.0,4.0,71,0.00,,,0.00,Wunderground v.1.15,2014-07-28 04:55:00,
2014-07-28 00:56:00,71.8,61.9,29.78,SW,229,2.0,4.0,71,0.00,,,0.00,Wunderground v.1.15,2014-07-28 04:56:00,
2014-07-28 00:59:00,71.7,61.8,29.78,NW,309,6.0,8.0,71,0.00,,,0.00,Wunderground v.1.15,2014-07-28 04:59:00,
2014-07-28 01:01:00,71.7,61.8,29.78,WSW,249,4.0,8.0,71,0.00,,,0.00,Wunderground v.1.15,2014-07-28 05:01:00,
2014-07-28 01:02:00,71.7,61.8,29.78,West,275,6.0,8.0,71,0.00,,,0.00,Wunderground v.1.15,2014-07-28 05:02:00,
2014-07-28 01:03:00,71.7,61.8,29.78,West,273,7.0,7.0,71,0.00,,,0.00,Wunderground v.1.15,2014-07-28 05:03:00,
2014-07-28 01:07:00,71.7,61.8,29.79,West,271,2.0,7.0,71,0.00,,,0.00,Wunderground v.1.15,2014-07-28 05:07:00,
2014-07-28 01:08:00,71.7,61.8,29.79,WNW,293,4.0,7.0,71,0.00,,,0.00,Wunderground v.1.15,2014-07-28 05:08:00,
2014-07-28 01:10:00,71.7,61.8,29.79,West,265,2.0,7.0,71,0.00,,,0.00,Wunderground v.1.15,2014-07-28 05:10:00,
2014-07-28 01:11:00,71.6,61.7,29.79,WNW,300,4.0,7.0,71,0.00,,,0.00,Wunderground v.1.15,2014-07-28 05:11:00,
2014-07-28 01:14:00,71.6,61.7,29.79,West,270,7.0,7.0,71,0.00,,,0.00,Wunderground v.1.15,2014-07-28 05:14:00,
2014-07-28 01:15:00,71.6,61.7,29.79,WSW,250,7.0,7.0,71,0.00,,,0.00,Wunderground v.1.15,2014-07-28 05:15:00,
2014-07-28 01:17:00,71.6,61.7,29.79,West,281,2.0,7.0,71,0.00,,,0.00,Wunderground v.1.15,2014-07-28 05:17:00,
2014-07-28 01:19:00,71.6,61.7,29.79,NW,304,6.0,7.0,71,0.00,,,0.00,Wunderground v.1.15,2014-07-28 05:19:00,
2014-07-28 01:20:00,71.6,61.7,29.79,West,263,3.0,7.0,71,0.00,,,0.00,Wunderground v.1.15,2014-07-28 05:20:00,
2014-07-28 01:21:00,71.6,61.7,29.79,WNW,286,5.0,7.0,71,0.00,,,0.00,Wunderground v.1.15,2014-07-28 05:21:00,
2014-07-28 01:22:00,71.5,61.6,29.79,WSW,238,6.0,7.0,71,0.00,,,0.00,Wunderground v.1.15,2014-07-28 05:22:00,